Date String (YYYY-MM-DD hh:mm:ss) UTC,Instrument flags,absolute air pressure of the measurement (hPa),sample flow rate (lpm),inlet stack bypass flow (lpm),air temperature of the measurement (°C),ambient temperature measured by the external sensor (°C),aerosol sample conditioner tube jacket temperature (°C),OPC LED temperature (°C),internal box temperature (°C),relative humidity of the measurement (%),span deviation,mass concentration of particles derived from Lorenz-Mie calculation of OPC scattering (μg/m³),mass concentration of particles derived from Lorenz-Mie calculation of OPC scattering (μg/m³),mass concentration of particles derived from Lorenz-Mie calculation of OPC scattering (μg/m³)
DateTimeUTC,F1_M11,P_M11,Q1_M11,Q2_M11,T1_M11,T2_M11,T3_M11,T4_M11,T5_M11,U1_M11,ZSPAN_M11,X2_M11,X0_M11,X1_M11
2023-07-20 17:00:00,SystemResetWarning,0837.9,4.99,000.00,030.8,027.2,000.0,039.0,031.4,32.9,0000.0,0002.65,0005.48,0001.84
2023-07-20 17:01:00,SystemResetWarning,0837.9,5.00,000.00,030.8,027.5,000.0,039.0,031.5,32.2,0000.0,0002.71,0005.59,0001.89
2023-07-20 17:02:00,SystemResetWarning,0837.9,5.01,000.00,030.8,027.8,000.0,039.0,031.5,32.0,0000.0,0002.73,0005.63,0001.91
2023-07-20 17:03:00,SystemResetWarning,0837.9,5.01,000.00,030.8,028.0,000.0,039.1,031.6,32.3,0000.0,0002.76,0005.78,0001.92
2023-07-20 17:04:00,SystemResetWarning,0837.9,4.98,000.00,030.8,028.2,000.0,039.1,031.6,32.4,0000.0,0002.82,0006.01,0001.95
2023-07-20 17:05:00,SystemResetWarning,0838.0,4.99,000.00,030.8,028.4,000.0,039.1,031.7,32.9,0000.0,0002.88,0006.32,0002.00
2023-07-20 17:06:00,SystemResetWarning,0837.9,5.00,000.00,030.8,028.5,000.0,039.1,031.7,33.5,0000.0,0002.89,0006.28,0002.05
2023-07-20 17:07:00,SystemResetWarning,0837.9,5.00,000.00,030.8,028.3,000.0,039.1,031.8,32.0,0000.0,0002.90,0006.28,0002.06
2023-07-20 17:08:00,SystemResetWarning,0837.9,4.99,000.00,030.8,026.9,000.0,038.9,031.6,33.4,0000.0,0002.84,0005.54,0002.06
2023-07-20 17:09:00,SystemResetWarning,0837.9,5.00,000.00,030.7,025.7,000.0,038.8,031.4,34.0,0000.0,0002.85,0005.02,0002.08
2023-07-20 17:10:00,SystemResetWarning,0838.0,5.01,000.00,030.6,025.5,000.0,038.7,031.2,34.1,0000.0,0002.86,0005.09,0002.10
2023-07-20 17:11:00,SystemResetWarning,0838.0,5.02,000.00,030.5,025.8,000.0,038.8,031.1,34.5,0000.0,0002.83,0005.17,0002.10
2023-07-20 17:12:00,SystemResetWarning,0838.0,4.99,000.00,030.4,026.3,000.0,038.8,031.1,34.4,0000.0,0002.79,0005.13,0002.09
2023-07-20 17:13:00,SystemResetWarning,0837.9,5.00,000.00,030.4,026.7,000.0,038.8,031.2,35.4,0000.0,0002.79,0005.23,0002.08
2023-07-20 17:14:00,SystemResetWarning,0838.0,5.02,000.00,030.6,027.1,000.0,038.8,031.4,36.2,0000.0,0002.76,0005.13,0002.08
2023-07-20 17:15:00,SystemResetWarning,0838.0,4.99,000.00,030.9,027.4,000.0,038.8,031.6,33.4,0000.0,0002.73,0004.94,0002.07
2023-07-20 17:16:00,SystemResetWarning,0838.0,4.99,000.00,031.1,027.7,000.0,038.8,031.7,31.9,0000.0,0002.74,0005.01,0002.05
2023-07-20 17:17:00,SystemResetWarning,0837.9,5.01,000.00,031.3,027.9,000.0,038.9,031.7,30.2,0000.0,0002.78,0006.44,0002.07
2023-07-20 17:18:00,SystemResetWarning,0838.0,5.01,000.00,031.3,028.1,000.0,038.9,031.8,30.2,0000.0,0002.78,0006.42,0002.08
2023-07-20 17:19:00,SystemResetWarning,0838.0,5.00,000.00,031.4,028.3,000.0,039.0,031.8,30.5,0000.0,0002.74,0006.33,0002.06
2023-07-20 17:20:00,SystemResetWarning,0838.0,5.00,000.00,031.4,028.4,000.0,039.1,031.8,30.2,0000.0,0002.75,0006.21,0002.07
2023-07-20 17:21:00,SystemResetWarning,0838.1,5.00,000.00,031.5,028.5,000.0,039.2,031.9,29.4,0000.0,0002.77,0006.51,0002.10
2023-07-20 17:22:00,SystemResetWarning,0838.0,5.00,000.00,031.5,027.5,000.0,039.1,031.8,28.3,0000.0,0002.83,0007.68,0002.15
2023-07-20 17:23:00,SystemResetWarning,0838.0,5.00,000.00,031.5,026.0,000.0,039.0,031.6,27.9,0000.0,0002.92,0007.90,0002.20
2023-07-20 17:24:00,SystemResetWarning,0837.9,5.00,000.00,031.4,025.5,000.0,039.0,031.4,28.0,0000.0,0002.89,0007.74,0002.25
2023-07-20 17:25:00,SystemResetWarning,0837.9,5.01,000.00,031.3,025.7,000.0,039.0,031.2,29.6,0000.0,0002.89,0007.70,0002.27
2023-07-20 17:26:00,SystemResetWarning,0838.0,5.01,000.00,031.1,026.1,000.0,039.1,031.2,30.8,0000.0,0002.93,0007.85,0002.28
2023-07-20 17:27:00,SystemResetWarning,0838.0,5.00,000.00,031.0,026.5,000.0,039.1,031.3,30.7,0000.0,0002.95,0008.09,0002.29
2023-07-20 17:28:00,SystemResetWarning,0837.8,5.00,000.00,031.0,026.9,000.0,039.1,031.3,30.9,0000.0,0002.87,0007.15,0002.26
2023-07-20 17:29:00,SystemResetWarning,0837.8,5.00,000.00,031.0,027.2,000.0,039.1,031.4,32.4,0000.0,0002.85,0007.34,0002.24
2023-07-20 17:30:00,SystemResetWarning,0837.8,5.00,000.00,031.0,027.6,000.0,039.1,031.5,33.1,0000.0,0002.83,0007.39,0002.22
2023-07-20 17:31:00,SystemResetWarning,0837.8,5.00,000.00,030.9,027.8,000.0,039.1,031.5,32.7,0000.0,0002.79,0007.38,0002.17
2023-07-20 17:32:00,SystemResetWarning,0837.8,4.99,000.00,030.9,028.0,000.0,039.1,031.6,32.7,0000.0,0002.73,0007.17,0002.12
2023-07-20 17:33:00,SystemResetWarning,0837.8,4.99,000.00,030.9,028.2,000.0,039.2,031.6,31.9,0000.0,0002.62,0005.59,0002.04
2023-07-20 17:34:00,SystemResetWarning,0837.8,5.00,000.00,030.9,028.4,000.0,039.2,031.7,33.3,0000.0,0002.45,0004.95,0001.93
2023-07-20 17:35:00,SystemResetWarning,0837.8,5.00,000.00,030.9,027.9,000.0,039.1,031.7,33.2,0000.0,0002.41,0005.07,0001.83
2023-07-20 17:36:00,SystemResetWarning,0837.8,5.01,000.00,030.9,026.3,000.0,038.9,031.5,33.5,0000.0,0002.36,0005.47,0001.77
2023-07-20 17:37:00,SystemResetWarning,0837.8,5.00,000.00,030.8,025.5,000.0,038.8,031.3,33.0,0000.0,0002.23,0006.20,0001.70
2023-07-20 17:38:00,SystemResetWarning,0837.7,5.00,000.00,030.7,025.6,000.0,038.8,031.1,33.0,0000.0,0002.18,0005.80,0001.66
2023-07-20 17:39:00,SystemResetWarning,0837.8,5.01,000.00,030.6,025.9,000.0,038.8,031.0,33.6,0000.0,0002.21,0005.69,0001.67
2023-07-20 17:40:00,SystemResetWarning,0837.8,5.00,000.00,030.5,026.3,000.0,038.8,031.1,33.6,0000.0,0002.17,0005.41,0001.64
2023-07-20 17:41:00,SystemResetWarning,0837.8,4.99,000.00,030.4,026.7,000.0,038.8,031.2,33.9,0000.0,0002.20,0005.38,0001.64
2023-07-20 17:42:00,SystemResetWarning,0837.8,5.00,000.00,030.4,027.1,000.0,038.8,031.2,33.8,0000.0,0002.26,0005.42,0001.69
2023-07-20 17:43:00,SystemResetWarning,0837.8,5.00,000.00,030.4,027.4,000.0,038.8,031.3,34.2,0000.0,0002.31,0005.46,0001.74
2023-07-20 17:44:00,SystemResetWarning,0837.8,5.00,000.00,030.4,027.7,000.0,038.8,031.4,34.6,0000.0,0002.37,0005.49,0001.80
2023-07-20 17:45:00,SystemResetWarning,0837.7,5.01,000.00,030.5,027.9,000.0,038.8,031.4,34.6,0000.0,0002.41,0005.42,0001.85
2023-07-20 17:46:00,SystemResetWarning,0837.8,4.99,000.00,030.5,028.1,000.0,038.8,031.6,33.8,0000.0,0002.46,0005.37,0001.93
2023-07-20 17:47:00,SystemResetWarning,0837.7,4.99,000.00,030.6,028.3,000.0,038.8,031.6,33.8,0000.0,0002.59,0005.39,0002.08
2023-07-20 17:48:00,SystemResetWarning,0837.7,5.00,000.00,030.7,027.5,000.0,038.7,031.6,33.4,0000.0,0002.76,0005.21,0002.22
2023-07-20 17:49:00,SystemResetWarning,0837.7,5.01,000.00,030.6,026.0,000.0,038.6,031.3,34.5,0000.0,0002.86,0005.35,0002.35
2023-07-20 17:50:00,SystemResetWarning,0837.6,5.00,000.00,030.6,025.4,000.0,038.5,031.1,33.1,0000.0,0002.93,0005.39,0002.42
2023-07-20 17:51:00,SystemResetWarning,0837.6,5.00,000.00,030.5,025.5,000.0,038.5,030.9,34.6,0000.0,0003.07,0006.78,0002.54
2023-07-20 17:52:00,SystemResetWarning,0837.6,5.00,000.00,030.4,025.9,000.0,038.6,030.9,34.4,0000.0,0003.14,0007.09,0002.67
2023-07-20 17:53:00,SystemResetWarning,0837.6,4.99,000.00,030.4,026.3,000.0,038.6,031.1,35.5,0000.0,0003.20,0007.32,0002.76
2023-07-20 17:54:00,SystemResetWarning,0837.6,5.03,000.00,030.6,026.7,000.0,038.6,031.2,34.6,0000.0,0003.22,0007.33,0002.81
2023-07-20 17:55:00,SystemResetWarning,0837.5,4.96,000.00,030.8,027.1,000.0,038.6,031.4,33.4,0000.0,0003.25,0007.36,0002.88
2023-07-20 17:56:00,SystemResetWarning,0837.6,5.03,000.00,030.9,027.4,000.0,038.7,031.4,32.3,0000.0,0003.34,0007.51,0002.99
2023-07-20 17:57:00,SystemResetWarning,0837.5,4.99,000.00,031.0,027.7,000.0,038.7,031.5,31.6,0000.0,0003.42,0008.07,0003.07
2023-07-20 17:58:00,SystemResetWarning,0837.6,4.99,000.00,031.0,027.9,000.0,038.8,031.5,32.2,0000.0,0003.43,0008.52,0003.08
2023-07-20 17:59:00,SystemResetWarning,0837.5,5.00,000.00,031.1,028.1,000.0,038.8,031.6,31.4,0000.0,0003.46,0008.00,0003.10
